Wind_Speed
45 47 48 49 50 51 46 41 43 45 48 47 54 51 49 49 58 58 61 60 58 58 55 52 52 52 50 48 46 46 46 45 43 41 38 36 34 31 28 27 27 26 25 24 23 23 22 20 19
43 46 49 53 52 55 46 46 48 49 50 52 56 49 52 52 48 55 61 63 61 59 54 55 53 54 53 51 48 46 48 49 47 44 41 40 38 36 33 30 29 30 29 27 26 25 24 22 22
45 46 48 49 51 50 47 46 49 52 57 58 61 57 51 54 56 60 61 61 61 59 57 55 55 54 55 53 51 49 47 49 50 48 45 42 41 40 37 33 32 32 32 31 29 28 27 25 25
48 50 53 54 52 45 52 49 48 50 56 58 62 64 62 62 59 61 61 60 56 60 61 60 59 56 55 55 54 53 49 50 49 51 50 46 43 42 41 37 35 35 35 34 32 31 31 28 28
51 53 55 57 54 50 53 54 54 56 57 59 61 63 68 71 73 67 64 65 62 61 61 61 59 60 59 58 56 55 54 52 52 51 52 50 47 46 44 42 39 38 38 37 35 35 33 31 30
53 56 60 61 58 55 55 56 59 61 62 60 67 64 63 74 77 76 70 68 65 64 64 61 61 60 61 60 60 58 57 55 53 53 52 51 48 47 46 45 43 41 41 40 38 37 36 34 33
57 60 62 62 62 61 57 57 59 64 65 68 71 68 66 77 78 75 76 74 70 67 65 66 62 61 62 61 61 62 60 58 55 54 54 52 51 48 48 48 46 45 44 43 41 40 39 37 35
64 69 68 64 63 67 59 63 68 70 69 69 71 69 70 76 76 78 77 77 79 75 70 68 68 65 65 63 63 64 62 61 59 57 57 54 53 51 52 50 49 48 47 47 44 42 41 39 38
68 72 73 69 66 70 66 72 71 75 71 68 69 70 74 78 80 81 81 80 79 83 79 74 71 70 69 67 65 66 64 63 63 60 57 58 55 52 53 53 52 51 50 50 47 45 44 43 42
73 77 75 72 73 76 77 77 75 75 74 70 70 72 78 83 84 87 84 84 81 81 83 81 76 73 72 72 69 69 68 66 65 63 61 58 59 56 57 56 55 53 52 51 49 47 47 46 44
77 80 79 78 78 79 81 81 74 73 77 75 76 77 81 85 85 87 86 86 86 84 83 84 82 78 75 74 73 71 71 69 66 65 65 62 61 60 58 56 57 55 53 52 51 50 49 48 46
79 78 79 80 79 80 78 79 82 78 80 77 78 78 76 81 84 87 90 89 88 88 87 85 85 85 80 77 75 75 73 72 70 67 67 65 61 62 59 58 58 56 56 55 54 52 50 49 49
77 76 78 79 80 82 80 82 81 84 81 72 65 67 70 73 78 82 87 89 90 90 90 89 87 87 86 82 79 78 77 76 74 72 69 69 63 62 61 60 58 59 58 56 55 54 53 51 51
77 78 80 82 83 83 83 80 79 82 69 63 62 64 66 69 72 77 79 82 87 90 92 92 90 88 88 88 85 82 80 80 78 76 74 73 70 59 62 62 59 55 64 57 56 56 55 55 53
78 80 82 83 82 83 73 78 78 68 54 53 55 56 59 65 68 70 71 75 79 85 89 94 92 91 91 91 90 87 84 83 83 80 78 76 76 67 67 63 66 62 63 62 58 59 56 57 57
82 85 85 76 77 72 57 68 66 60 48 49 49 50 55 59 64 67 70 73 77 83 82 85 91 94 95 95 93 93 90 87 86 85 83 81 79 81 69 65 62 62 64 67 64 62 61 58 57
83 83 78 73 65 48 50 64 61 57 52 51 47 48 49 52 56 61 65 73 74 72 73 80 85 91 97 98 97 96 96 93 89 88 87 85 82 83 77 73 62 63 75 67 68 68 61 58 60
77 72 71 68 60 61 59 55 55 52 52 51 48 50 50 49 52 54 61 66 65 69 72 78 83 87 93 100 100 100 99 98 95 91 89 88 87 85 87 80 69 66 71 64 72 72 67 64 62
70 68 68 65 58 52 52 55 50 49 41 43 47 44 47 50 50 53 60 56 55 61 68 73 78 82 88 95 102 103 102 102 101 98 94 92 91 90 90 91 86 73 50 67 65 72 70 68 68
62 61 53 49 43 41 46 45 45 40 40 38 30 24 27 30 36 45 46 48 47 44 50 63 72 78 82 89 97 104 105 105 104 103 100 97 94 92 93 94 91 85 74 65 63 53 68 77 71
52 50 50 52 49 42 41 43 36 24 34 30 27 26 28 29 30 35 41 43 44 45 45 44 48 64 77 82 90 99 106 107 107 106 105 102 99 96 94 95 94 93 85 77 72 57 58 70 71
47 46 52 45 43 43 31 44 26 29 25 19 29 25 27 31 35 40 44 48 50 51 53 52 50 48 51 63 82 91 102 109 108 108 108 107 105 101 97 96 96 92 92 84 78 82 50 60 64
44 42 35 37 37 41 32 38 34 15 9 17 23 27 29 29 33 37 40 39 38 40 40 41 45 47 48 51 62 81 93 104 109 111 111 111 109 106 103 99 96 97 91 91 84 71 69 64 64
33 37 31 28 26 26 19 17 26 16 19 22 26 30 26 29 33 35 37 39 41 45 50 49 46 45 47 50 56 65 81 95 108 112 114 113 113 110 107 103 101 95 95 92 89 84 75 73 67
31 36 35 27 20 25 17 26 29 26 16 19 24 25 28 31 32 34 37 39 39 38 38 43 53 52 52 54 53 56 65 79 97 109 114 116 115 113 110 108 104 100 94 92 88 85 81 78 70
21 26 26 29 29 29 19 21 12 22 24 20 21 24 26 27 29 30 34 40 44 44 41 37 36 42 54 61 60 59 62 69 83 101 113 118 118 116 113 111 108 103 98 93 89 87 84 77 74
24 24 22 24 22 24 22 19 13 21 24 22 24 26 23 27 29 32 37 39 40 42 42 44 40 39 43 46 47 61 68 68 72 87 104 117 121 119 116 114 111 106 101 96 88 87 83 78 82
18 20 20 18 24 29 26 22 15 15 21 22 25 25 26 26 29 33 35 39 42 44 39 43 42 46 52 58 61 58 57 73 70 75 92 111 120 121 119 117 113 109 104 100 92 87 82 79 77
17 19 20 21 21 25 30 10 19 22 24 24 26 27 30 30 32 34 34 24 29 27 26 25 34 40 40 44 47 57 60 62 75 76 80 97 114 122 122 118 115 111 104 100 95 87 81 77 74
15 15 17 20 22 24 30 14 25 21 24 30 28 30 31 31 32 33 33 29 28 33 34 35 38 44 45 46 47 47 54 60 70 78 77 84 98 118 125 121 117 112 104 101 94 88 83 80 75
Wind_Direction
278 277 276 274 275 276 278 281 279 275 271 268 265 263 262 259 259 257 255 252 254 253 252 251 252 250 249 247 243 240 244 244 242 241 239 241 242 240 230 223 223 221 227 227 229 231 231 231 222
283 280 277 274 276 277 285 281 277 278 276 271 268 263 261 259 259 257 255 254 251 251 250 250 249 251 250 247 244 240 238 242 243 241 238 238 239 240 237 226 222 224 220 224 225 231 233 231 231
286 284 281 279 281 287 290 278 272 270 271 273 271 266 263 262 254 256 254 254 256 254 250 247 245 245 247 246 244 240 236 237 242 242 239 234 236 239 238 232 225 224 224 220 222 226 231 232 233
285 283 281 280 280 287 283 278 272 267 266 264 268 268 266 261 260 260 257 255 251 250 248 245 244 241 241 242 242 241 237 234 235 242 241 237 234 236 237 234 228 226 224 224 223 222 228 230 232
286 284 280 279 282 282 278 277 276 274 268 265 263 267 267 265 263 257 255 256 252 250 249 246 244 242 239 240 240 239 238 234 234 235 241 241 235 234 235 233 229 225 226 225 223 225 225 229 231
289 287 287 288 286 279 277 276 273 268 269 269 269 264 265 264 262 261 256 255 254 251 251 248 246 242 240 237 237 235 236 235 232 232 236 240 237 235 234 232 231 227 225 226 225 226 225 227 231
294 292 292 288 287 284 283 276 272 267 267 266 267 268 266 262 261 262 261 256 253 251 247 247 246 244 240 236 235 234 232 233 232 231 231 236 238 235 234 232 231 229 227 226 226 227 227 225 228
298 295 295 294 291 287 281 273 268 266 266 268 268 270 265 264 264 262 259 255 254 249 248 244 243 242 242 236 234 234 231 230 230 231 231 229 235 235 234 233 230 230 229 227 226 227 229 226 226
298 295 295 298 292 289 283 277 274 272 270 267 268 269 266 264 263 259 258 256 252 251 247 243 240 239 239 239 234 233 231 229 228 227 229 230 229 235 236 235 232 230 230 229 226 226 228 228 227
297 295 294 292 290 287 285 281 280 278 275 270 269 267 264 262 259 259 258 255 251 249 247 245 241 238 235 237 235 232 231 229 226 225 225 228 228 228 232 234 231 230 231 231 229 227 228 229 229
295 294 293 289 288 286 283 281 282 279 276 277 274 269 263 260 259 257 253 253 250 246 247 244 243 238 235 232 234 233 231 230 228 225 225 224 227 228 231 231 234 229 230 230 230 227 228 229 230
295 295 292 289 287 286 285 282 281 281 282 279 276 274 267 260 258 255 254 250 250 248 244 243 241 241 235 233 231 231 232 231 229 226 224 223 226 226 229 232 234 230 228 228 229 230 229 230 230
297 295 292 290 287 285 285 283 283 280 283 283 277 270 266 260 258 256 255 253 248 246 245 241 239 238 238 234 231 229 229 231 230 227 225 224 222 227 226 230 231 235 229 227 227 227 229 230 231
298 294 292 290 290 291 290 288 285 284 284 277 272 267 261 258 257 257 255 253 250 246 244 241 238 237 236 235 232 229 227 229 229 228 225 224 223 223 229 227 230 234 231 226 229 228 228 229 231
298 294 291 292 292 290 288 285 287 286 280 273 269 263 262 261 259 258 255 250 248 247 244 240 238 236 235 234 233 231 226 226 228 227 227 224 224 220 222 226 228 228 231 225 225 229 230 230 230
300 298 298 296 292 292 293 286 286 285 284 279 274 271 264 260 259 257 254 252 248 244 243 244 240 236 234 232 231 230 228 225 225 227 226 225 224 223 219 222 226 230 233 226 223 226 228 226 232
305 302 300 298 292 280 275 286 287 289 290 287 286 281 273 267 263 262 260 255 252 248 245 242 238 237 234 232 231 229 228 225 223 225 225 226 224 225 220 216 219 223 226 228 223 223 226 230 232
309 304 298 294 291 289 287 275 278 280 283 284 287 285 280 271 264 261 258 255 254 253 248 244 239 236 233 233 230 229 227 226 223 223 225 225 225 224 222 223 215 216 222 224 229 223 223 223 228
310 302 295 293 294 289 287 285 289 285 287 288 294 289 278 271 264 257 259 263 261 259 252 246 243 238 234 230 231 228 227 225 224 222 222 224 225 223 224 225 224 218 216 218 224 228 221 222 225
305 296 293 296 300 293 295 293 288 289 293 297 280 285 286 282 259 258 266 269 268 265 260 252 246 242 239 232 228 229 227 225 224 223 222 222 223 225 223 225 230 225 227 234 226 226 226 221 223
302 292 295 296 300 297 300 292 299 300 297 281 275 278 272 272 264 261 263 265 268 270 268 263 255 249 242 240 231 226 227 225 223 223 221 221 222 223 224 224 228 229 225 227 223 221 233 222 219
296 294 297 302 297 304 303 302 307 304 290 273 265 271 277 275 270 265 263 266 270 271 270 266 262 254 245 244 238 230 224 224 224 222 221 221 221 221 223 225 225 227 227 225 221 225 222 223 224
295 304 305 300 297 293 302 301 313 324 288 274 276 284 288 279 275 273 272 272 273 272 269 265 260 255 250 246 239 236 227 222 222 222 222 220 221 221 222 224 226 226 227 226 229 230 223 218 224
303 311 311 306 305 303 326 303 308 307 284 253 272 284 287 284 284 283 281 279 278 279 276 268 258 252 250 246 241 240 236 224 220 220 221 220 220 220 221 222 225 225 227 228 229 233 229 222 222
294 308 314 317 307 295 306 285 302 312 289 289 287 291 294 291 292 289 283 281 279 276 282 272 263 258 251 246 243 239 236 233 224 217 218 220 218 219 220 221 222 225 226 227 228 230 231 231 235
290 301 313 314 316 312 304 300 323 310 312 307 302 301 298 300 301 299 297 294 288 287 271 272 272 263 255 251 244 237 235 233 231 221 214 216 218 217 219 221 221 223 225 226 227 229 230 236 234
288 298 305 299 311 312 312 318 302 295 297 307 318 309 309 312 312 311 306 300 292 290 276 263 262 263 258 260 252 244 236 232 231 229 219 211 216 216 217 219 220 221 223 226 225 229 230 231 237
306 296 300 317 308 305 306 314 341 307 297 308 316 317 321 319 321 316 313 309 302 299 289 268 269 264 261 257 256 250 242 232 227 226 224 213 211 215 216 217 219 220 221 225 226 228 229 231 235
269 290 292 296 302 309 311 342 333 322 309 324 328 333 331 332 326 318 314 315 329 323 304 275 269 264 265 262 256 242 237 235 226 224 225 220 210 211 214 216 218 219 219 223 226 228 230 230 232
286 299 302 287 295 283 299 334 331 318 322 330 332 337 334 333 328 321 314 304 308 313 311 284 289 280 274 257 258 243 230 230 224 221 220 221 216 208 211 214 215 218 218 222 224 228 229 232 232
Height
5738 5736 5733 5731 5732 5729 5736 5742 5739 5737 5734 5735 5731 5734 5738 5735 5732 5730 5735 5743 5746 5750 5756 5760 5764 5768 5773 5775 5778 5783 5788 5791 5791 5793 5797 5800 5803 5806 5808 5810 5813 5815 5820 5823 5826 5829 5831 5833 5833
5726 5725 5724 5720 5723 5720 5730 5733 5729 5725 5719 5718 5718 5727 5726 5726 5723 5715 5727 5729 5732 5738 5744 5749 5754 5758 5762 5767 5769 5773 5778 5783 5786 5788 5790 5794 5797 5801 5804 5806 5809 5811 5813 5818 5822 5825 5828 5830 5832
5719 5716 5713 5710 5712 5714 5716 5717 5714 5713 5707 5707 5705 5711 5718 5717 5704 5705 5716 5718 5723 5729 5735 5736 5741 5746 5751 5757 5761 5763 5767 5774 5778 5782 5784 5786 5790 5794 5799 5802 5804 5807 5809 5812 5815 5819 5824 5826 5829
5709 5706 5704 5701 5705 5710 5702 5703 5702 5701 5697 5697 5695 5699 5702 5699 5697 5698 5704 5706 5713 5714 5719 5725 5728 5734 5738 5744 5751 5756 5758 5763 5768 5774 5777 5780 5782 5787 5791 5795 5799 5802 5804 5808 5811 5813 5818 5822 5824
5700 5696 5692 5691 5695 5698 5690 5690 5687 5684 5681 5686 5684 5691 5689 5684 5676 5685 5693 5694 5700 5704 5707 5712 5717 5722 5727 5732 5738 5745 5750 5752 5758 5763 5769 5774 5775 5779 5784 5788 5791 5795 5799 5802 5805 5808 5812 5817 5819
5689 5686 5680 5678 5681 5683 5682 5678 5671 5669 5667 5672 5665 5675 5682 5659 5661 5668 5678 5684 5687 5692 5695 5699 5704 5709 5715 5721 5725 5731 5739 5743 5746 5753 5759 5765 5769 5772 5776 5780 5784 5788 5793 5796 5800 5803 5806 5811 5815
5677 5669 5667 5665 5666 5667 5671 5663 5653 5653 5654 5652 5650 5661 5666 5639 5641 5655 5662 5669 5674 5676 5680 5685 5692 5696 5701 5707 5713 5717 5725 5732 5738 5742 5748 5755 5761 5765 5768 5773 5777 5781 5786 5789 5794 5798 5801 5804 5808
5664 5654 5653 5653 5647 5644 5652 5642 5632 5634 5639 5638 5637 5642 5642 5624 5630 5636 5646 5652 5655 5660 5663 5670 5677 5682 5687 5694 5699 5707 5712 5720 5725 5732 5738 5743 5751 5756 5759 5764 5769 5773 5778 5783 5787 5791 5795 5798 5802
5650 5643 5639 5637 5628 5626 5630 5616 5616 5611 5621 5624 5622 5622 5616 5609 5611 5613 5621 5631 5636 5639 5646 5651 5660 5667 5672 5679 5687 5693 5700 5706 5713 5720 5728 5733 5739 5747 5750 5755 5760 5766 5769 5775 5779 5784 5787 5792 5795
5636 5628 5626 5620 5611 5600 5603 5596 5595 5587 5593 5603 5602 5600 5592 5583 5587 5590 5602 5608 5613 5619 5626 5633 5642 5649 5656 5663 5672 5678 5686 5693 5700 5707 5715 5722 5728 5732 5738 5746 5749 5756 5762 5768 5773 5776 5780 5784 5789
5623 5615 5609 5604 5592 5583 5581 5576 5574 5568 5569 5578 5575 5571 5565 5559 5563 5567 5576 5581 5588 5597 5606 5613 5622 5631 5639 5646 5655 5664 5672 5678 5688 5694 5701 5709 5716 5721 5727 5736 5740 5746 5753 5759 5764 5768 5772 5776 5782
5605 5598 5590 5586 5575 5565 5560 5554 5550 5543 5548 5551 5543 5538 5539 5536 5536 5542 5548 5558 5566 5574 5584 5593 5601 5610 5620 5629 5637 5648 5656 5664 5674 5682 5688 5696 5704 5710 5716 5725 5733 5738 5742 5748 5755 5761 5765 5769 5774
5588 5582 5570 5564 5553 5544 5536 5531 5524 5527 5530 5525 5517 5514 5511 5511 5512 5518 5524 5533 5544 5551 5558 5569 5579 5588 5599 5611 5620 5629 5640 5649 5657 5668 5676 5683 5691 5699 5706 5714 5721 5731 5732 5739 5745 5751 5758 5762 5767
5571 5561 5551 5541 5533 5521 5506 5502 5499 5515 5507 5496 5495 5490 5488 5489 5491 5495 5503 5509 5515 5525 5533 5543 5557 5568 5576 5588 5600 5611 5621 5632 5641 5651 5661 5669 5678 5685 5694 5701 5709 5718 5724 5730 5735 5741 5747 5755 5759
5548 5540 5533 5525 5513 5500 5488 5480 5483 5484 5484 5477 5472 5471 5473 5473 5474 5475 5480 5484 5489 5496 5504 5517 5533 5546 5556 5566 5578 5590 5602 5613 5624 5634 5643 5654 5663 5672 5681 5688 5697 5707 5714 5720 5726 5732 5738 5744 5750
5523 5514 5500 5506 5490 5480 5468 5460 5467 5461 5465 5458 5457 5457 5456 5456 5455 5456 5458 5461 5463 5464 5482 5498 5510 5518 5529 5540 5552 5566 5581 5593 5605 5616 5626 5636 5646 5657 5666 5674 5685 5697 5701 5708 5714 5721 5728 5736 5742
5507 5485 5479 5474 5472 5464 5457 5445 5448 5447 5448 5443 5443 5441 5440 5440 5442 5440 5441 5435 5443 5455 5465 5468 5475 5488 5502 5515 5528 5541 5556 5572 5585 5596 5608 5619 5630 5640 5651 5660 5672 5679 5688 5696 5702 5708 5718 5726 5732
5479 5468 5456 5448 5452 5445 5439 5435 5436 5438 5434 5431 5430 5426 5424 5425 5425 5424 5413 5420 5431 5434 5437 5441 5449 5461 5474 5488 5503 5517 5532 5548 5563 5577 5589 5601 5612 5623 5635 5644 5654 5664 5671 5678 5690 5695 5706 5715 5714
5460 5448 5437 5434 5434 5428 5423 5419 5423 5422 5421 5419 5416 5414 5411 5410 5410 5402 5403 5411 5414 5413 5416 5421 5427 5436 5446 5459 5475 5491 5507 5521 5539 5555 5569 5581 5593 5605 5617 5625 5636 5646 5652 5666 5675 5684 5692 5698 5708
5445 5434 5426 5421 5420 5415 5412 5408 5408 5411 5409 5408 5404 5403 5399 5397 5394 5395 5398 5398 5398 5400 5401 5404 5409 5416 5424 5434 5448 5463 5481 5496 5514 5532 5547 5561 5574 5587 5599 5610 5618 5632 5639 5647 5655 5654 5673 5681 5695
5433 5424 5416 5410 5407 5407 5402 5395 5399 5402 5398 5397 5397 5395 5393 5390 5388 5388 5388 5388 5387 5387 5389 5391 5393 5397 5404 5410 5420 5435 5452 5472 5490 5508 5526 5541 5554 5568 5580 5590 5599 5613 5627 5635 5645 5650 5659 5672 5682
5418 5416 5408 5402 5399 5395 5398 5384 5394 5392 5390 5389 5387 5388 5386 5384 5382 5380 5379 5378 5376 5375 5375 5376 5378 5381 5386 5389 5397 5410 5424 5443 5466 5483 5501 5518 5533 5549 5562 5572 5582 5594 5610 5621 5631 5638 5648 5657 5670
5410 5406 5400 5396 5393 5389 5394 5385 5386 5383 5383 5382 5381 5380 5379 5377 5373 5370 5368 5367 5365 5363 5362 5363 5364 5366 5369 5372 5376 5383 5399 5418 5439 5457 5475 5495 5512 5528 5542 5555 5567 5577 5592 5606 5614 5623 5634 5642 5655
5405 5399 5396 5391 5388 5385 5387 5384 5380 5382 5380 5378 5376 5373 5372 5368 5365 5361 5358 5356 5355 5352 5349 5349 5351 5353 5355 5358 5361 5365 5376 5391 5407 5430 5450 5470 5490 5506 5522 5537 5550 5564 5576 5588 5602 5612 5619 5628 5639
5399 5395 5387 5386 5384 5383 5383 5379 5378 5377 5374 5373 5370 5368 5365 5361 5357 5354 5350 5347 5344 5340 5335 5332 5334 5337 5338 5342 5346 5350 5356 5365 5378 5400 5423 5446 5466 5486 5504 5517 5533 5546 5561 5575 5589 5599 5609 5616 5625
5392 5392 5388 5381 5379 5376 5378 5376 5376 5371 5369 5367 5364 5361 5358 5354 5349 5344 5339 5335 5330 5327 5324 5321 5319 5319 5321 5323 5328 5333 5339 5344 5355 5372 5394 5418 5442 5465 5482 5497 5515 5530 5544 5560 5575 5586 5598 5604 5613
5388 5387 5386 5380 5379 5373 5371 5371 5372 5367 5364 5360 5358 5354 5351 5346 5341 5335 5329 5322 5316 5311 5307 5306 5306 5307 5306 5307 5309 5314 5320 5326 5336 5349 5366 5390 5416 5440 5460 5477 5496 5512 5529 5544 5561 5571 5584 5594 5600
5384 5384 5381 5379 5374 5369 5368 5366 5364 5363 5359 5356 5353 5348 5344 5339 5333 5327 5320 5312 5304 5296 5291 5289 5288 5289 5289 5287 5288 5293 5297 5306 5317 5327 5342 5365 5391 5415 5438 5456 5476 5494 5514 5527 5544 5557 5571 5580 5590
5380 5379 5377 5375 5373 5368 5361 5363 5361 5358 5353 5350 5346 5341 5335 5330 5324 5319 5312 5304 5296 5288 5281 5278 5275 5271 5268 5264 5263 5266 5276 5283 5294 5306 5321 5340 5366 5393 5413 5437 5458 5477 5498 5514 5529 5546 5559 5571 5580
5375 5374 5373 5371 5370 5369 5364 5360 5358 5353 5350 5345 5341 5336 5330 5325 5319 5312 5303 5297 5289 5281 5274 5268 5262 5253 5247 5245 5243 5247 5252 5261 5270 5287 5304 5322 5344 5366 5392 5417 5439 5462 5484 5499 5517 5534 5548 5560 5571